AAL175 KDFW-RJTT

Flight info

Callsign AAL175
Flight time N/A
Altitude 32000
Route HUDAD2 HUDAD DCT PNH DCT OWUPO DCT HBU DCT TWF/N0483F340 J15 BOI DCT JOTBA DCT BTG DCT KS09A DCT WIDEN DCT 47N130W 49N140W 52N150W 54N160W/N0488F360 54N170W 53N180E DCT AAMYY DCT AKISU/N0482F380 DCT KALIG KALNA OTR5 ADNAP Y807 POLIX
Aircraft B77W/H-SDE1E2E3FGHIJ2J3J4J5M1RWXY/LB1D1

Departure

Time N/A
Airport Dallas Fort Worth International Airport (KDFW)

Arrival

Time 2026-05-04 09:47
Airport Tokyo Haneda International Airport (RJTT)
Time Latitude Longitude Altitude Speed Heading
2026-05-04 08:57 37.07841 145.26687 37651 ft 401 kts 246°
2026-05-04 09:01 36.94131 144.81218 37654 ft 398 kts 246°
2026-05-04 09:01 36.92168 144.74763 37656 ft 397 kts 246°
2026-05-04 09:02 36.90204 144.68325 37651 ft 396 kts 246°
2026-05-04 09:02 36.88243 144.61909 37647 ft 395 kts 246°
2026-05-04 09:03 36.86280 144.55503 37649 ft 395 kts 246°
2026-05-04 09:03 36.84317 144.49110 37674 ft 394 kts 245°
2026-05-04 09:04 36.82352 144.42723 37658 ft 393 kts 245°
2026-05-04 09:04 36.80403 144.36401 37648 ft 392 kts 245°
2026-05-04 09:05 36.78441 144.30066 37650 ft 391 kts 245°
2026-05-04 09:05 36.76461 144.23710 37667 ft 390 kts 245°
2026-05-04 09:06 36.74496 144.17412 37652 ft 389 kts 245°
2026-05-04 09:08 36.66659 143.92408 37654 ft 387 kts 245°
2026-05-04 09:08 36.64690 143.86155 37655 ft 388 kts 245°
2026-05-04 09:09 36.63036 143.80920 37655 ft 388 kts 245°
2026-05-04 09:09 36.61054 143.74663 37657 ft 389 kts 245°
2026-05-04 09:10 36.59083 143.68452 37651 ft 389 kts 245°
2026-05-04 09:10 36.57095 143.62197 37651 ft 388 kts 245°
2026-05-04 09:11 36.55108 143.55957 37654 ft 388 kts 245°
2026-05-04 09:11 36.53117 143.49719 37647 ft 388 kts 245°
2026-05-04 09:12 36.51126 143.43495 37651 ft 387 kts 245°
2026-05-04 09:14 36.43150 143.18687 37649 ft 386 kts 245°
2026-05-04 09:14 36.41150 143.12499 37648 ft 386 kts 245°
2026-05-04 09:15 36.39146 143.06315 37649 ft 386 kts 245°
2026-05-04 09:15 36.37138 143.00127 37662 ft 386 kts 245°
2026-05-04 09:17 36.28064 142.72331 37658 ft 386 kts 245°
2026-05-04 09:18 36.26041 142.66172 37656 ft 386 kts 245°
2026-05-04 09:18 36.24020 142.60027 37656 ft 385 kts 245°
2026-05-04 09:19 36.21997 142.53892 37659 ft 384 kts 245°
2026-05-04 09:19 36.19988 142.47805 37665 ft 384 kts 245°
2026-05-04 09:20 36.17961 142.41689 37659 ft 383 kts 244°
2026-05-04 09:20 36.15817 142.35660 37660 ft 382 kts 243°
2026-05-04 09:21 36.13629 142.29661 37663 ft 382 kts 243°
2026-05-04 09:21 36.11456 142.23665 37673 ft 382 kts 243°
2026-05-04 09:22 36.09284 142.17660 37664 ft 382 kts 243°
2026-05-04 09:22 36.07116 142.11676 37664 ft 382 kts 243°
2026-05-04 09:23 36.04957 142.05685 37662 ft 381 kts 243°
2026-05-04 09:23 36.02808 141.99698 37663 ft 381 kts 243°
2026-05-04 09:25 35.95077 141.75351 37672 ft 386 kts 253°
2026-05-04 09:26 35.94377 141.68748 37659 ft 393 kts 262°
2026-05-04 09:26 35.94416 141.61987 37663 ft 394 kts 263°
2026-05-04 09:27 35.94453 141.58578 36931 ft 401 kts 263°
2026-05-04 09:27 35.94484 141.55200 36189 ft 399 kts 263°
2026-05-04 09:27 35.94508 141.51767 35299 ft 400 kts 262°
2026-05-04 09:27 35.94526 141.48318 34321 ft 404 kts 262°
2026-05-04 09:28 35.94539 141.44840 33302 ft 407 kts 262°
2026-05-04 09:28 35.94550 141.41338 32209 ft 409 kts 262°
2026-05-04 09:28 35.94561 141.37822 31172 ft 410 kts 262°
2026-05-04 09:28 35.94572 141.34308 30285 ft 409 kts 262°
2026-05-04 09:29 35.94583 141.30811 29390 ft 406 kts 263°
2026-05-04 09:29 35.94592 141.27340 28503 ft 402 kts 263°
2026-05-04 09:29 35.94600 141.23916 27712 ft 396 kts 263°
2026-05-04 09:29 35.94608 141.20537 26947 ft 392 kts 263°
2026-05-04 09:30 35.94622 141.17197 26201 ft 387 kts 263°
2026-05-04 09:30 35.94638 141.13893 25477 ft 383 kts 263°
2026-05-04 09:30 35.94652 141.10625 24751 ft 379 kts 263°
2026-05-04 09:30 35.94665 141.07387 24027 ft 376 kts 263°
2026-05-04 09:31 35.94677 141.04171 23323 ft 373 kts 263°
2026-05-04 09:31 35.94651 141.00990 22514 ft 367 kts 260°
2026-05-04 09:31 35.94348 140.97911 21800 ft 358 kts 255°
2026-05-04 09:31 35.93891 140.94916 21124 ft 352 kts 254°
2026-05-04 09:32 35.93372 140.91987 20442 ft 347 kts 252°
2026-05-04 09:32 35.92661 140.89166 19741 ft 341 kts 246°
2026-05-04 09:34 35.86835 140.70639 15047 ft 322 kts 246°
2026-05-04 09:34 35.86029 140.68073 14413 ft 320 kts 246°
2026-05-04 09:34 35.85228 140.65523 13800 ft 319 kts 246°
2026-05-04 09:34 35.84425 140.62974 13151 ft 318 kts 247°
2026-05-04 09:35 35.83625 140.60435 12467 ft 318 kts 247°
2026-05-04 09:35 35.82823 140.57888 11797 ft 319 kts 248°
2026-05-04 09:35 35.82018 140.55334 11173 ft 320 kts 248°
2026-05-04 09:35 35.81211 140.52773 10557 ft 323 kts 248°
2026-05-04 09:37 35.76118 140.36666 9641 ft 258 kts 248°
2026-05-04 09:37 35.75470 140.34625 9374 ft 257 kts 248°
2026-05-04 09:38 35.74816 140.32568 8980 ft 259 kts 249°
2026-05-04 09:38 35.74155 140.30492 8564 ft 263 kts 249°
2026-05-04 09:38 35.73490 140.28401 8199 ft 264 kts 249°
2026-05-04 09:38 35.72825 140.26312 7993 ft 258 kts 250°
2026-05-04 09:39 35.72180 140.24290 7840 ft 251 kts 250°
2026-05-04 09:39 35.71536 140.22268 7356 ft 256 kts 251°
2026-05-04 09:39 35.70892 140.20248 6973 ft 258 kts 251°
2026-05-04 09:39 35.70235 140.18188 6565 ft 261 kts 252°
2026-05-04 09:40 35.69564 140.16083 6153 ft 263 kts 252°
2026-05-04 09:40 35.68900 140.14001 5749 ft 266 kts 252°
2026-05-04 09:40 35.68224 140.11887 5389 ft 266 kts 252°
2026-05-04 09:40 35.67550 140.09783 4866 ft 259 kts 252°
2026-05-04 09:41 35.66909 140.07794 4459 ft 243 kts 253°
2026-05-04 09:42 35.63275 139.96461 3099 ft 180 kts 252°
2026-05-04 09:43 35.62818 139.95038 2841 ft 177 kts 252°
2026-05-04 09:43 35.62371 139.93647 2567 ft 170 kts 252°
2026-05-04 09:43 35.61952 139.92353 2319 ft 156 kts 252°
2026-05-04 09:43 35.61709 139.91146 2074 ft 136 kts 269°
2026-05-04 09:44 35.61331 139.90124 1623 ft 140 kts 221°
2026-05-04 09:44 35.60479 139.89497 1287 ft 136 kts 221°
2026-05-04 09:44 35.59781 139.88772 1393 ft 137 kts 229°
2026-05-04 09:46 35.55009 139.83240 358 ft 113 kts 223°
2026-05-04 09:46 35.54416 139.82588 152 ft 114 kts 223°
2026-05-04 09:46 35.53841 139.81949 40 ft 107 kts 223°
2026-05-04 09:47 35.53356 139.81410 28 ft 78 kts 220°
2026-05-04 09:47 35.53044 139.81061 28 ft 44 kts 224°
2026-05-04 09:49 35.53049 139.80490 28 ft 24 kts 329°
2026-05-04 09:49 35.53216 139.80371 28 ft 30 kts 331°
2026-05-04 09:49 35.53411 139.80236 28 ft 34 kts 330°
2026-05-04 09:51 35.54247 139.79640 29 ft 23 kts 330°
2026-05-04 09:51 35.54380 139.79546 29 ft 19 kts 330°
2026-05-04 09:51 35.54484 139.79473 29 ft 18 kts 330°
2026-05-04 09:51 35.54574 139.79388 29 ft 13 kts 288°
2026-05-04 09:52 35.54550 139.79310 29 ft 10 kts 238°
2026-05-04 09:52 35.54502 139.79215 29 ft 18 kts 238°
2026-05-04 09:52 35.54414 139.79045 30 ft 29 kts 237°
2026-05-04 09:52 35.54332 139.78870 29 ft 19 kts 244°
2026-05-04 09:53 35.54269 139.78724 29 ft 19 kts 240°
2026-05-04 09:53 35.54201 139.78582 29 ft 19 kts 239°
2026-05-04 09:53 35.54133 139.78440 28 ft 19 kts 239°
2026-05-04 09:53 35.54066 139.78302 30 ft 19 kts 239°
2026-05-04 09:54 35.54002 139.78161 28 ft 20 kts 240°
2026-05-04 09:54 35.53946 139.78012 28 ft 12 kts 271°
2026-05-04 09:54 35.53999 139.77942 28 ft 12 kts 330°
2026-05-04 09:54 35.54079 139.77887 28 ft 19 kts 329°
2026-05-04 09:55 35.54232 139.77777 28 ft 27 kts 330°
2026-05-04 09:55 35.54396 139.77662 28 ft 27 kts 330°
2026-05-04 09:55 35.54560 139.77543 28 ft 27 kts 329°
2026-05-04 09:55 35.54724 139.77426 28 ft 27 kts 330°
2026-05-04 09:56 35.54889 139.77310 28 ft 27 kts 329°
2026-05-04 09:56 35.54997 139.77233 28 ft 27 kts 330°
2026-05-04 09:56 35.55094 139.77164 28 ft 12 kts 329°
2026-05-04 09:56 35.55117 139.77048 27 ft 12 kts 242°
2026-05-04 09:57 35.55067 139.76939 28 ft 17 kts 241°
2026-05-04 09:57 35.55027 139.76854 28 ft 17 kts 239°
2026-05-04 09:57 35.54962 139.76711 27 ft 10 kts 240°
2026-05-04 09:57 35.54940 139.76661 28 ft 10 kts 239°
2026-05-04 09:58 35.54918 139.76638 28 ft 3 kts 205°
2026-05-04 09:58 35.54877 139.76639 27 ft 7 kts 152°
2026-05-04 09:58 35.54859 139.76653 28 ft 2 kts 150°
2026-05-04 10:00 35.54852 139.76657 28 ft 0 kts 150°